Location: Alafon
(8.4500°N, 4.2333°E)
Time: 08:53:27
(UTC+00:00)

deb Explorer IX - Visible Passes

Search period start: 24 July 2021 00:00
Search period end: 03 August 2021 00:00
Orbit: 542 x 1096 km, 38.8° (Epoch: 23 July)

Date Brightness Start Highest point End Pass type
(mag) Time Alt. Az. Time Alt. Az. Time Alt. Az.
24 Jul ? 20:45:44 10° N 20:48:45 14° NNE 20:48:45 14° NNE visible
25 Jul ? 20:21:32 10° N 20:25:20 15° NNE 20:25:41 15° NNE visible
25 Jul ? 22:06:20 10° NW 22:06:53 12° NW 22:06:53 12° NW visible
26 Jul ? 19:57:22 10° N 20:01:08 15° NNE 20:02:38 14° NE visible
26 Jul ? 21:42:05 10° NW 21:43:51 18° NW 21:43:51 18° NW visible
27 Jul ? 19:33:11 10° N 19:36:56 15° NNE 19:39:39 12° NE visible
27 Jul ? 21:17:51 10° NW 21:20:52 26° NNW 21:20:52 26° NNW visible
28 Jul ? 19:09:03 10° N 19:12:42 14° NNE 19:16:25 10° ENE visible
28 Jul ? 20:53:36 10° NW 20:57:56 37° NNW 20:57:56 37° NNW visible
29 Jul ? 18:44:55 10° N 18:48:29 14° NNE 18:52:05 10° ENE visible
29 Jul ? 20:29:22 10° NW 20:35:04 50° N 20:35:04 50° N visible
30 Jul ? 18:20:50 10° N 18:24:14 14° NNE 18:27:43 10° ENE visible
30 Jul ? 20:05:09 10° NW 20:12:10 57° NE 20:12:14 57° NE visible
30 Jul ? 21:53:06 10° WNW 21:53:28 11° WNW 21:53:28 11° WNW visible
31 Jul ? 19:40:56 10° NW 19:47:51 57° NE 19:49:29 47° E visible
31 Jul ? 21:28:48 10° WNW 21:30:44 18° W 21:30:44 18° W visible
01 Aug ? 19:16:43 10° NW 19:23:32 56° NE 19:26:48 32° ESE visible
01 Aug ? 21:04:30 10° WNW 21:08:02 25° W 21:08:02 25° W visible
02 Aug ? 18:52:31 10° NW 18:59:13 56° NE 19:04:11 21° ESE visible
02 Aug ? 20:40:14 10° WNW 20:45:25 32° WSW 20:45:25 32° WSW visible
